UTC  calendar date,Angular Size (deg),Planetocentric sub-spacecraft Longitude (deg),Planetocentric sub-spacecraft Latitude (deg),Planetocentric Subsolar Longitude (deg),Planetocentric Subsolar Latitude (deg),Planetographic Sub-Spacecraft Longitude (deg),Planetographic Sub-Spacecraft  Latitude (deg),Planetographic Solar Longitude (deg),Planetographic Solar Latitude (deg),Sub-Point Radius (km),Observer Distance (km),Phase Angle (deg),
2021-02-21 12:40:00.000000 UTC,16.51673593,-35.73385962,14.5971343,-175.937226,-0.28978349,175.937226,-0.33138481,175.937226,-0.33138481,71168.268,426594.7758,137.5647347,
2021-02-21 12:50:00.000000 UTC,16.93115477,-41.91117193,15.15078445,178.0179891,-0.28975488,181.9820109,-0.33135209,181.9820109,-0.33135209,71144.00836,414524.2259,137.2452288,
2021-02-21 13:00:00.000000 UTC,17.37195554,-48.09617854,15.73408721,171.9732042,-0.28972627,188.0267958,-0.33131938,188.0267958,-0.33131938,71117.59532,402321.6186,136.9031735,
2021-02-21 13:10:00.000000 UTC,17.84187166,-54.2896974,16.34987187,165.9284193,-0.28969766,194.0715807,-0.33128666,194.0715807,-0.33128666,71088.77564,389981.789,136.5362231,
2021-02-21 13:20:00.000000 UTC,18.3440352,-60.49267483,17.00136021,159.8836343,-0.28966905,200.1163657,-0.33125394,200.1163657,-0.33125394,71057.257,377499.239,136.1416977,
2021-02-21 13:30:00.000000 UTC,18.88205291,-66.70621271,17.69223885,153.8388494,-0.28964044,206.1611506,-0.33122122,206.1611506,-0.33122122,71022.70046,364868.1118,135.7165225,
2021-02-21 13:40:00.000000 UTC,19.46010034,-72.93160293,18.42674819,147.7940645,-0.28961183,212.2059355,-0.3311885,212.2059355,-0.3311885,70984.71121,352082.165,135.2571526,
2021-02-21 13:50:00.000000 UTC,20.08303939,-79.17037165,19.20979293,141.7492796,-0.28958321,218.2507204,-0.33115578,218.2507204,-0.33115578,70942.82697,339134.743,134.7594794,
2021-02-21 14:00:00.000000 UTC,20.75656624,-85.4243369,20.0470803,135.7044947,-0.2895546,224.2955053,-0.33112307,224.2955053,-0.33112307,70896.50369,326018.7498,134.218715,
2021-02-21 14:10:00.000000 UTC,21.48739932,-91.6956842,20.94529453,129.6597098,-0.28952599,230.3402903,-0.33109035,230.3402903,-0.33109035,70845.09749,312726.623,133.6292465,
2021-02-21 14:20:00.000000 UTC,22.28352041,-97.98706766,21.91231915,123.6149248,-0.28949738,236.3850752,-0.33105763,236.3850752,-0.33105763,70787.84192,299250.3129,132.9844513,
2021-02-21 14:30:00.000000 UTC,23.15448734,-104.301747,22.95752295,117.5701399,-0.28946877,242.4298601,-0.33102491,242.4298601,-0.33102491,70723.81913,285581.2683,132.2764614,
2021-02-21 14:40:00.000000 UTC,24.11184397,-110.6437765,24.09213179,111.525355,-0.28944016,248.474645,-0.33099219,248.474645,-0.33099219,70651.92301,271710.4364,131.4958588,
2021-02-21 14:50:00.000000 UTC,25.16966479,-117.0182708,25.32971758,105.4805701,-0.28941155,254.5194299,-0.33095947,254.5194299,-0.33095947,70570.81215,257628.2857,130.6312778,
2021-02-21 15:00:00.000000 UTC,26.34528781,-123.4317873,26.68684898,99.43578518,-0.28938294,260.5642148,-0.33092675,260.5642148,-0.33092675,70478.84931,243324.8656,129.6688815,
2021-02-21 15:10:00.000000 UTC,27.66031575,-129.8928894,28.18396845,93.39100027,-0.28935432,266.6089997,-0.33089404,266.6089997,-0.33089404,70374.02405,228789.9254,128.5916615,
2021-02-21 15:20:00.000000 UTC,29.14200571,-136.413001,29.84658986,87.34621536,-0.28932571,272.6537846,-0.33086132,272.6537846,-0.33086132,70253.854,214013.1307,127.3784925,
2021-02-21 15:30:00.000000 UTC,30.82523199,-143.007745,31.70695643,81.30143046,-0.2892971,278.6985695,-0.3308286,278.6985695,-0.3308286,70115.2615,198984.4322,126.0028361,
2021-02-21 15:40:00.000000 UTC,32.75531183,-149.6991237,33.80636596,75.25664555,-0.28926849,284.7433545,-0.33079588,284.7433545,-0.33079588,69954.42476,183694.6864,124.4309413,
2021-02-21 15:50:00.000000 UTC,34.99215786,-156.5192329,36.19847118,69.21186065,-0.28923988,290.7881394,-0.33076316,290.7881394,-0.33076316,69766.61327,168136.6841,122.6193092,
2021-02-21 16:00:00.000000 UTC,37.61651672,-163.5169454,38.95400245,63.16707575,-0.28921127,296.8329243,-0.33073044,296.8329243,-0.33073044,69546.04434,152306.8558,120.5110708,
2021-02-21 16:10:00.000000 UTC,40.73956144,-170.7707691,42.16751973,57.12229085,-0.28918265,302.8777092,-0.33069772,302.8777092,-0.33069772,69285.86809,136208.1153,118.0307454,
2021-02-21 16:20:00.000000 UTC,44.51798835,-178.4157432,45.96684011,51.07750595,-0.28915404,308.9224941,-0.330665,308.9224941,-0.330665,68978.56318,119854.6496,115.0765715,
2021-02-21 16:30:00.000000 UTC,49.17827683,173.2938731,50.52503435,45.03272105,-0.28912543,314.967279,-0.33063228,314.967279,-0.33063228,68617.45479,103280.1024,111.5092215,
2021-02-21 16:40:00.000000 UTC,55.05615406,163.8157205,56.07022149,38.98793615,-0.28909682,321.0120639,-0.33059956,321.0120639,-0.33059956,68201.09157,86551.79805,107.135246,
2021-02-21 16:50:00.000000 UTC,62.65998318,151.7624431,62.86309597,32.94315126,-0.28906821,327.0568487,-0.33056684,327.0568487,-0.33056684,67744.52341,69795.96531,101.6832849,
2021-02-21 17:00:00.000000 UTC,72.76369398,132.4617083,70.94440216,26.89836637,-0.28903959,333.1016336,-0.33053412,333.1016336,-0.33053412,67305.84898,53243.60005,94.77185557,
2021-02-21 17:10:00.000000 UTC,86.49115686,85.95400364,77.87749057,20.85358148,-0.28901098,339.1464185,-0.3305014,339.1464185,-0.3305014,67039.83926,37316.76865,85.87322235,
2021-02-21 17:20:00.000000 UTC,105.0994461,17.62260901,71.79527208,14.80879659,-0.28898237,345.1912034,-0.33046869,345.1912034,-0.33046869,67267.38294,22798.46264,74.3105393,
2021-02-21 17:30:00.000000 UTC,127.9715918,-11.59922974,53.3082192,8.7640117,-0.28895376,351.2359883,-0.33043597,351.2359883,-0.33043597,68404.52218,11166.19544,59.5416544,
2021-02-21 17:40:00.000000 UTC,143.349792,-27.03744854,29.20948048,2.71922681,-0.28892514,357.2807732,-0.33040325,357.2807732,-0.33040325,70300.34214,5018.999463,43.25915375,
2021-02-21 17:50:00.000000 UTC,130.6030339,-38.68380895,4.2372992,-3.32555807,-0.28889653,3.32555807,-0.33037053,3.32555807,-0.33037053,71464.00014,7227.029593,35.69780902,
2021-02-21 18:00:00.000000 UTC,107.7247596,-49.08339061,-16.59234762,-9.37034296,-0.28886792,9.37034296,-0.33033781,9.37034296,-0.33033781,71077.16724,17457.08322,43.11798326,
2021-02-21 18:10:00.000000 UTC,88.56805697,-59.13634288,-32.11442525,-15.41512784,-0.28883931,15.41512784,-0.33030509,15.41512784,-0.33030509,70084.38602,32350.61454,53.8130388,
2021-02-21 18:20:00.000000 UTC,74.33951276,-69.26282903,-43.59717943,-21.45991272,-0.28881069,21.45991272,-0.33027237,21.45991272,-0.33027237,69169.9322,49223.8786,62.70987755,
2021-02-21 18:30:00.000000 UTC,63.86281274,-79.72623199,-52.29055907,-27.5046976,-0.28878208,27.5046976,-0.33023965,27.5046976,-0.33023965,68481.54948,66757.11287,69.64660661,
2021-02-21 18:40:00.000000 UTC,55.99231091,-90.7422783,-59.0171362,-33.54948247,-0.28875347,33.54948247,-0.33020692,33.54948247,-0.33020692,67994.59373,84368.1702,75.11402408,
2021-02-21 18:50:00.000000 UTC,49.92296083,-102.5174945,-64.2910877,-39.59426735,-0.28872486,39.59426735,-0.3301742,39.59426735,-0.3301742,67657.96469,101802.0336,79.52264264,
2021-02-21 19:00:00.000000 UTC,45.12269006,-115.2530344,-68.43501044,-45.63905222,-0.28869624,45.63905222,-0.33014148,45.63905222,-0.33014148,67428.2426,118948.7613,83.15740056,
2021-02-21 19:10:00.000000 UTC,41.23969917,-129.1157298,-71.65208255,-51.68383709,-0.28866763,51.68383709,-0.33010876,51.68383709,-0.33010876,67273.74631,135765.2502,86.21265817,
2021-02-21 19:20:00.000000 UTC,38.03686912,-144.1685399,-74.07145185,-57.72862196,-0.28863902,57.72862196,-0.33007604,57.72862196,-0.33007604,67172.31914,152240.2431,88.82325815,
2021-02-21 19:30:00.000000 UTC,35.35042015,-160.2693815,-75.78202808,-63.77340683,-0.2886104,63.77340683,-0.33004332,63.77340683,-0.33004332,67108.59652,168377.8764,91.08506435,
2021-02-21 19:40:00.000000 UTC,33.06438654,-176.9996464,-76.86158469,-69.81819169,-0.28858179,69.81819169,-0.3300106,69.81819169,-0.3300106,67071.87837,184189.6015,93.06792854,
2021-02-21 19:50:00.000000 UTC,31.09471489,166.2764622,-77.39837258,-75.86297656,-0.28855318,75.86297656,-0.32997788,75.86297656,-0.32997788,67054.64367,199690.0862,94.82392028,
2021-02-21 20:00:00.000000 UTC,29.37916471,150.2027674,-77.49712463,-81.90776142,-0.28852456,81.90776142,-0.32994516,81.90776142,-0.32994516,67051.54753,214895.0958,96.39265496,
2021-02-21 20:10:00.000000 UTC,27.87074806,135.216779,-77.2685623,-87.95254628,-0.28849595,87.95254628,-0.32991244,87.95254628,-0.32991244,67058.74884,229820.3944,97.80482545,
2021-02-21 20:20:00.000000 UTC,26.53336957,121.4814234,-76.81343938,-93.99733114,-0.28846734,93.99733114,-0.32987972,93.99733114,-0.32987972,67073.45752,244481.1882,99.08459882,
2021-02-21 20:30:00.000000 UTC,25.33886463,108.9528781,-76.21251855,-100.042116,-0.28843872,100.042116,-0.329847,100.042116,-0.329847,67093.6269,258891.8604,100.2512793,
2021-02-21 20:40:00.000000 UTC,24.26494555,97.4842789,-75.52493939,-106.0869009,-0.28841011,106.0869009,-0.32981428,106.0869009,-0.32981428,67117.74243,273065.8669,101.3204862,
2021-02-21 20:50:00.000000 UTC,23.29374991,86.90132615,-74.79152927,-112.1316857,-0.2883815,112.1316857,-0.32978156,112.1316857,-0.32978156,67144.67463,287015.7176,102.3050037,
2021-02-21 21:00:00.000000 UTC,22.41079657,77.04068723,-74.03943413,-118.1764706,-0.28835288,118.1764706,-0.32974883,118.1764706,-0.32974883,67173.57578,300753.004,103.2154045,
2021-02-21 21:10:00.000000 UTC,21.60422245,67.76373042,-73.28623616,-124.2212554,-0.28832427,124.2212554,-0.32971611,124.2212554,-0.32971611,67203.80618,314288.4506,104.0605153,
2021-02-21 21:20:00.000000 UTC,20.86421651,58.95811193,-72.54305901,-130.2660403,-0.28829566,130.2660403,-0.32968339,130.2660403,-0.32968339,67234.88122,327631.9752,104.847768,
2021-02-21 21:30:00.000000 UTC,20.18259398,50.53467347,-71.81673875,-136.3108251,-0.28826704,136.3108251,-0.32965067,136.3108251,-0.32965067,67266.43281,340792.7528,105.5834694,
2021-02-21 21:40:00.000000 UTC,19.55247223,42.42318306,-71.11128848,-142.35561,-0.28823843,142.35561,-0.32961795,142.35561,-0.32961795,67298.18101,353779.2784,106.2730095,
2021-02-21 21:50:00.000000 UTC,18.9680211,34.56832133,-70.42887122,-148.4003948,-0.28820981,148.4003948,-0.32958523,148.4003948,-0.32958523,67329.91308,366599.4265,106.9210251,
2021-02-21 22:00:00.000000 UTC,18.42426853,26.92633914,-69.77044305,-154.4451796,-0.2881812,154.4451796,-0.32955251,154.4451796,-0.32955251,67361.46777,379260.5055,107.5315294,
2021-02-21 22:10:00.000000 UTC,17.91694764,19.46242057,-69.1361784,-160.4899645,-0.28815259,160.4899645,-0.32951978,160.4899645,-0.32951978,67392.72347,391769.309,108.1080152,
2021-02-21 22:20:00.000000 UTC,17.44237555,12.1486533,-68.52575211,-166.5347493,-0.28812397,166.5347493,-0.32948706,166.5347493,-0.32948706,67423.58926,404132.1614,108.6535383,
2021-02-21 22:30:00.000000 UTC,16.99735624,4.96248279,-67.93852701,-172.5795342,-0.28809536,172.5795342,-0.32945434,172.5795342,-0.32945434,67453.99802,416354.9594,109.1707847,
2021-02-21 22:40:00.000000 UTC,16.57910227,-2.11446216,-67.37367902,-178.624319,-0.28806674,178.624319,-0.32942162,178.624319,-0.32942162,67483.90118,428443.2097,109.6621265,